Flag for Canada Weather past 2 weeks in Fort Simpson, Northwest Territories, Canada

Now
32 °F

Low clouds.


Feels Like: 24 °F
Forecast: 27 / 34 °F
Wind: 10 mph from Northwest

Location: Fort Simpson

Current Time: Oct 21, 2014 at 2:44:56 PM

Latest Report: Oct 21, 2014 at 2:00 PM


Visibility: 15 mi

Pressure: 29.56 "Hg

Humidity: 87%

Dew point: 28 °F

Location of Fort SimpsonLocation

Historic Weather in Fort Simpson — Graph

°F

Fort Simpson temperature yesterday

Maximum temperature yesterday: 36 °F (at 4:00 PM)
Minimum temperature yesterday: 32 °F (at 4:00 AM)
Average temperature yesterday: 33 °F

Past Weeks' High & Low Weather Summary

 TemperatureHumidityPressure
High43 °F (Oct 7, 5:00 PM)100% (Oct 6, 9:00 PM)30.24 "Hg (Oct 6, 9:00 PM)
Low27 °F (Oct 11, 7:00 AM)49% (Oct 7, 5:00 PM)29.24 "Hg (Oct 11, 5:00 AM)
Average33 °F87%29.78 "Hg
* Reported Oct 6 1:00 PM — Oct 21 1:00 PM, Fort Simpson, Weather by CustomWeather, © 2014

Note: Actual official high and low records may vary slightly from our data, if they occured in-between our weather recording intervals... More about our weather records

Advertising

Fort Simpson weather history for previous 24 hours

 ConditionsComfort  
Time TempWeatherWind HumidityBarometerVisibility
1:00 PM
Oct 21
32 °FPartly sunny.10 mph87%29.54 "Hg15 mi
12:00 PM32 °FPartly sunny.8 mph87%29.53 "Hg15 mi
11:00 AM30 °FPartly sunny.8 mph93%29.52 "Hg15 mi
10:00 AM30 °FPartly cloudy.8 mph93%29.49 "Hg15 mi
9:00 AM30 °FLow clouds.8 mph93%29.49 "Hg12 mi
8:00 AM30 °FIce fog.8 mph100%29.48 "Hg4 mi
7:00 AM32 °FIce fog.5 mph93%29.47 "Hg4 mi
6:00 AM32 °FIce fog.5 mph93%29.46 "Hg2 mi
5:00 AM32 °FIce fog.7 mph93%29.44 "Hg2 mi
4:00 AM32 °FIce fog.3 mph93%29.43 "Hg2 mi
3:00 AM32 °FIce fog.3 mph100%29.42 "Hg2 mi
2:00 AM32 °FIce fog.3 mph100%29.41 "Hg2 mi
1:00 AM34 °FFog.3 mph93%29.40 "Hg1 mi
12:00 AM34 °FFog.No wind93%29.39 "Hg0 mi
11:00 PM
Oct 20
34 °FFog.5 mph93%29.38 "Hg0 mi
10:00 PM34 °FFog.5 mph93%29.37 "Hg1 mi
9:00 PM34 °FFog.5 mph100%29.36 "Hg0 mi
8:00 PM34 °FFog.6 mph100%29.36 "Hg0 mi
7:00 PM34 °FFog.5 mph100%29.36 "Hg0 mi
6:00 PM36 °FFog.3 mph93%29.35 "Hg0 mi
5:00 PM36 °FLow clouds.3 mph93%29.34 "Hg15 mi
4:00 PM36 °FPartly sunny.2 mph87%29.34 "Hg15 mi
3:00 PM34 °FLow clouds.6 mph93%29.34 "Hg15 mi
2:00 PM34 °FLow clouds.10 mph93%29.34 "Hg15 mi
Weather by CustomWeather, © 2014

See weather overviewHow to use our weather pages